Location: Brachstadt
(48.6975°N, 10.6755°E)
Time: 12:42:24
(UTC+00:00)

Envisat - Pass Details

Date: 06 December 2022
Orbit: 763 x 765 km, 98.2° (Epoch: 06 February)

Event Time Altitude Azimuth Distance (km) Brightness Sun altitude
Rises 04:06:44 0° 10° (N) 3,246 6.3 -26.7°
Reaches altitude 10° 04:09:04 10° 7° (N) 2,315 5.5 -26.3°
Enters shadow 04:11:06 24° 359° (N) 1,559 4.5 -26.0°
